Wind_Speed
27 28 28 29 30 32 32 33 36 36 34 36 36 30 26 24 29 33 35 29 29 35
23 25 28 30 30 32 35 35 39 37 35 36 34 34 29 22 24 28 31 33 36 35
18 23 24 26 29 30 34 35 38 39 36 38 34 34 34 34 26 22 26 31 35 35
20 22 25 26 29 30 33 33 35 36 36 36 34 31 33 33 26 31 29 26 28 31
20 23 26 28 28 32 33 33 33 34 37 35 34 29 33 33 25 28 33 32 26 27
21 25 27 31 32 33 32 33 33 34 33 34 34 32 30 26 31 32 31 34 34 30
23 25 28 31 34 34 34 32 33 32 32 31 33 33 30 27 32 31 34 36 36 34
24 26 28 30 32 35 35 34 32 32 33 32 32 28 37 37 35 36 34 32 32 29
24 26 27 29 32 31 32 33 32 32 32 32 31 34 34 36 39 36 33 31 32 32
23 24 27 31 27 30 31 32 35 32 31 31 32 33 38 39 39 33 31 32 31 30
23 25 28 24 30 29 30 31 31 32 32 33 32 35 38 41 36 34 32 31 31 28
23 25 22 28 28 29 29 29 30 31 33 32 33 34 38 40 35 33 33 30 29 28
21 20 26 28 26 29 28 27 29 31 31 32 32 36 36 38 35 34 34 33 30 27
18 21 22 27 28 30 28 27 29 30 30 30 33 33 36 39 38 36 37 33 31 27
Wind_Direction
13 11 9 7 4 3 358 353 352 351 347 350 348 346 342 349 342 340 340 335 331 258
13 11 3 359 356 354 355 353 354 353 349 346 343 339 338 336 331 345 348 350 342 322
15 6 360 356 354 350 348 346 347 349 346 345 342 336 340 337 323 338 343 345 339 348
11 4 357 354 352 349 347 346 342 342 338 340 337 336 335 331 326 334 337 337 331 334
7 2 357 353 350 346 345 344 342 340 334 331 332 331 333 329 331 333 325 324 326 316
6 1 354 350 347 346 345 342 339 338 335 330 330 326 327 324 327 324 322 320 314 315
6 358 351 348 346 345 343 342 338 337 336 334 328 325 323 323 320 322 318 319 316 315
1 353 349 347 345 342 342 341 341 336 335 334 333 330 331 327 323 319 317 314 308 305
355 348 349 348 344 344 344 339 339 337 336 333 331 327 329 328 322 318 313 310 315 313
352 353 350 346 351 348 344 341 337 336 338 334 332 331 332 331 326 317 313 312 313 314
358 356 351 357 353 349 344 338 334 334 334 331 330 331 334 334 328 321 315 315 312 310
0 356 2 359 350 345 341 337 334 332 331 330 335 338 337 339 332 323 317 314 313 311
2 6 360 356 349 343 339 337 338 339 341 337 338 338 336 336 329 324 322 315 307 304
8 4 359 354 351 346 343 344 348 345 342 343 342 339 342 338 335 327 321 314 307 300
Height
852 849 848 845 841 837 833 827 822 816 812 805 803 796 799 791 788 782 778 764 759 758
852 850 848 845 842 837 833 828 822 817 812 808 805 802 795 788 788 776 766 761 757 756
853 851 849 846 842 837 832 827 821 816 811 807 802 798 791 783 782 774 770 762 757 749
853 851 849 845 842 837 832 827 821 816 811 806 801 796 791 785 777 768 761 759 757 748
852 850 847 845 841 836 830 825 821 816 810 805 800 794 789 784 778 770 770 767 756 754
851 849 846 843 839 834 829 824 819 814 808 803 798 793 788 782 778 772 767 762 759 748
851 848 846 842 837 832 827 822 817 812 806 802 797 791 785 781 774 768 763 755 748 737
850 848 845 841 836 831 826 820 815 809 804 798 793 788 783 777 771 764 757 753 749 742
849 846 843 839 835 830 824 818 812 807 802 796 791 786 782 776 768 760 753 747 742 735
849 845 842 838 833 828 822 816 809 804 799 794 789 783 777 771 764 756 749 743 737 731
847 844 840 836 832 827 822 815 809 803 797 791 786 780 774 767 759 751 744 738 732 725
846 843 839 836 831 826 820 814 808 802 795 789 783 778 771 764 755 746 738 732 727 721
846 843 840 836 831 826 820 814 807 800 795 788 782 775 769 761 752 742 733 725 719 715
845 843 840 835 830 824 818 813 807 801 794 787 780 772 765 758 749 740 729 721 713 709